Location: Newark
(6.9000°N, 10.0000°E)
Time: 08:22:43
(UTC+00:00)

OTV 5 (USA 277) - Visible Passes

Search period start: 14 October 2019 00:00
Search period end: 24 October 2019 00:00
Orbit: 310 x 324 km, 54.5° (Epoch: 08 October)

Date Brightness Start Highest point End Pass type
(mag) Time Alt. Az. Time Alt. Az. Time Alt. Az.
21 Oct ? 18:23:41 10° SSW 18:24:48 22° SSW 18:24:48 22° SSW visible
22 Oct ? 18:38:45 10° WSW 18:40:01 18° W 18:40:01 18° W visible
23 Oct ? 17:18:54 10° S 17:21:14 26° ESE 17:23:35 10° ENE visible
